Location: Harwich
(41.7160°N, 69.9939°W)
Time: 14:17:44
(UTC+01:00)

A-11 Canister half - Pass Details

Date: 30 November 2023
Orbit: 1526 x 1682 km, 47.3° (Epoch: 01 March)

Event Time Altitude Azimuth Distance (km) Brightness Sun altitude
Rises 07:20:57 0° 295° (WNW) 4,893 - -59.0°
Reaches altitude 10° 07:24:07 10° 295° (WNW) 3,887 - -58.5°
Maximum altitude 07:34:05 87° 207° (SSW) 1,610 - -56.9°
Exits shadow 07:43:06 12° 120° (ESE) 3,577 11.1 -55.4°
Drops below altitude 10° 07:43:40 10° 120° (ESE) 3,753 11.2 -55.3°
Sets 07:46:40 0° 120° (ESE) 4,718 11.8 -54.8°
